User: anonymous   Login
Location: ?
(35.4214°N, 139.3011°E)
Time: 10:59:34
(UTC+00:00)
Language:

OAO 2 Rocket - Orbit

View from above orbital plane
View from above orbital plane
View from above satellite
View from above satellite

Ground track
Ground track

The orbit data is extracted from the following two-line orbital elements,

1  3598U 68110B   20270.88456448  .00000079  00000-0  22568-4 0  9992
2  3598  34.9946  52.9911 0049783 225.3036 134.3596 14.54484496740934
Epoch (UTC): 26 September 2020 21:13:46
Eccentricity: 0.0049783
inclination: 34.9946°
perigee height: 676 km
apogee height: 746 km
right ascension of ascending node: 52.9911°
argument of perigee: 225.3036°
revolutions per day: 14.54484496
mean anomaly at epoch: 134.3596°
orbit number at epoch: 74093

The dashed part of the orbit path shows where the satellite is in the earth's shadow,  

DLR